Notices

What's New in latest Release from April 7th, 2021:

- Updated Glossary, including Speed of Maximum Gust, and Total Hourly Precipitation

- Updated national and regional climate services offices contacts and prices information

- Addition of station inventory lists for 1981-2010, 1971-2000, and 1961-1990 Normals.

If you haven't already, please take our survey and provide feedback about our website: https://eccc.sondage-survey.ca/f/LanguageSelection.aspx?s=442ca660-fcf1-47c0-95a9-59707d6fd709

Hourly Data Report for October 29, 2019

QUALICUM BEACH AIRPORT
BRITISH COLUMBIA
Current Station Operator: ECCC - MSC

49°20'14.000" N
124°23'38.000" W
58.20 m
1026562
71766
VOQ

Download Data

Hourly Data (October 2019)
Hourly Data Report for October 29, 2019
TIME
LST
Temp Definition
°C
Dew Point Definition
°C
Rel Hum Definition
%
Precip. Amount Definition
mm

Wind Dir Definition
10's deg

Wind Spd Definition
km/h
Visibility Definition
km
Stn Press Definition
kPa
Hmdx Definition


Wind Chill Definition


Weather Definition


00:00 5.0 0.0 70 0.0 15 10   102.17     LegendNANA
01:00 4.3 -1.9 64 0.0 15 5   102.27     LegendNANA
02:00 6.6 -6.8 38 0.0 16 14   102.30     LegendNANA
03:00 6.4 -7.9 35 0.0 16 11   102.36     LegendNANA
04:00 6.2 -7.9 36 0.0 16 12   102.36     LegendNANA
05:00 5.1 -7.5 40 0.0 15 10   102.41     LegendNANA
06:00 4.6 -8.0 40 0.0 15 7   102.47     LegendNANA
07:00 4.6 -8.9 37 0.0 15 9   102.50     LegendNANA
08:00 6.3 -11.8 26 0.0 15 12   102.54     LegendNANA
09:00 7.3 -10.7 27 0.0 14 15   102.57     LegendNANA
10:00 8.2 -10.1 26 0.0 14 17   102.59     LegendNANA
11:00 9.1 -10.6 24 0.0 13 12   102.59     LegendNANA
12:00 9.5 -8.3 28 0.0 10 11   102.57     LegendNANA
13:00 9.2 -5.7 34 0.0 9 15   102.52     LegendNANA
14:00 9.0 -4.6 38 0.0 9 15   102.53     LegendNANA
15:00 8.4 -3.3 43 0.0 10 13   102.53     LegendNANA
16:00 8.1 -3.1 45 0.0 11 10   102.50     LegendNANA
17:00 6.9 -3.6 47 0.0 13 6   102.49     LegendNANA
18:00 4.1 -2.0 65 0.0 25 2   102.47     LegendNANA
19:00 2.1 -1.5 77 0.0 0 1   102.45     LegendNANA
20:00 1.0 -1.3 85 0.0 25 1   102.46     LegendNANA
21:00 -0.7 -2.2 89 0.0   0   102.49     LegendNANA
22:00 -0.8 -2.5 88 0.0 0 1   102.49   -1 LegendNANA
23:00 -0.8 -2.4 89 0.0 25 3   102.47   -2 LegendNANA

Notes on Data Quality.

Legend

  • E = Estimated
  • M = Missing
  • NA = Not Available*
  • [empty] = Indicates an unobserved value
Date modified: